[[{"header":{"parameterUnit":"m.s-1","parameterCategory":1,"la1":30.2991,"la2":30.254,"lo1":-89.0895,"lo2":-89.0444,"dy":0.0017,"dx":0.0017,"nx":28,"ny":28,"refTime":"2023-11-08T09:00:00:Z","depth":0,"parameterNumber":2,"parameterNumberName":"U-component_of_WINDS"},"data":[0,0,0,0,0,0,0,0,0,0,0,0,0,0,0,0,0,0,0,0,0,0,0,0,0,0,0,0,0,0,0,0,0,0,0,0,0,0,0,0,0,0,0,0,0,0,0,0,0,0,0,0,0,0,0,0,0,0,0.0156,0.0156,0,0.0168,0.0168,0.0168,0.0173,0.0173,0.0173,0.0173,0.0186,0.0186,0.0186,0,0,0,0,0,0,0,0,0,0,0,0,0,0.0136,0.0136,0.0156,0.0156,0.0156,0.0168,0.0168,0.0168,0.0173,0.0173,0.0173,0.0173,0.0186,0.0186,0.0186,0,0,0,0,0,0,0,0,0,0,0,0,0,0.0146,0.0136,0.0156,0.016,0.016,0.0168,0.0168,0.0168,0.0173,0.0173,0.0173,0.0173,0.0185,0.0186,0.0187,0.0191,0,0,0.0188,0.0188,0,0,0,0,0,0,0,0,0.0145,0.0147,0.0159,0.016,0.016,0.0169,0.0166,0.0176,0.0173,0.0168,0.0173,0.0173,0.018,0.0181,0.0184,0.0191,0.0192,0.0188,0.0189,0.0189,0.0189,0,0,0,0,0,0,0,0.0145,0.0146,0.016,0.0159,0.016,0.0161,0.0162,0.0168,0.0174,0.0169,0.0169,0.0171,0.018,0.0183,0.0184,0.0192,0.0188,0.0189,0.0189,0.0189,0.0203,0.0204,0,0,0,0,0,0,0.0143,0.0145,0.016,0.0161,0.0152,0.0161,0.0163,0.0166,0.0174,0.0176,0.0171,0.0171,0.0182,0.0183,0.0184,0.019,0.0189,0.0189,0.019,0.0203,0.0204,0.0204,0,0,0,0,0,0,0.0143,0.0144,0.016,0.0153,0.0155,0.0162,0.0165,0.0166,0.0169,0.0176,0.0177,0.0172,0.0182,0.0184,0.0189,0.019,0.019,0.019,0.0203,0.0203,0.0204,0.02,0,0,0,0,0,0,0.0142,0.0144,0.0146,0.0153,0.0156,0.0164,0.0165,0.0167,0.017,0.017,0.0177,0.0178,0.0182,0.0188,0.019,0.0191,0.019,0.0203,0.0203,0.0204,0.02,0.02,0.02,0,0,0,0,0,0.0141,0.0145,0.0146,0.0148,0.0158,0.0164,0.0165,0.017,0.017,0.0172,0.0176,0.0178,0.019,0.0189,0.019,0.0192,0.0203,0.0203,0.0204,0.02,0.02,0.02,0,0,0,0,0,0,0.0137,0.0146,0.0147,0.0153,0.0158,0.0165,0.0167,0.017,0.0174,0.0175,0.018,0.0181,0.0186,0.019,0.0188,0.0196,0.0197,0.0197,0.0194,0.0194,0.0194,0.0193,0.0191,0,0,0,0,0,0.0137,0.0141,0.0149,0.0153,0.0155,0.0161,0.0164,0.0167,0.0172,0.0174,0.0179,0.0183,0.0188,0.0191,0.0196,0.0201,0.0202,0.0203,0.0203,0.0203,0.0203,0.0206,0.0206,0.0204,0.0204,0.0204,0,0,0.0136,0.0142,0.0144,0.0152,0.0156,0.0161,0.0163,0.0167,0.017,0.0175,0.018,0.0184,0.0189,0.0195,0.0197,0.0197,0.0204,0.0203,0.0203,0.0203,0.0206,0.0206,0.0206,0.0204,0.0204,0.0204,0,0,0.0138,0.0142,0.0146,0.015,0.0157,0.016,0.0161,0.0168,0.0171,0.0176,0.0179,0.0183,0.0191,0.0195,0.0198,0.0201,0.0203,0.0202,0.0202,0.0205,0.0205,0.0205,0.0206,0.0206,0.0203,0.0203,0.0203,0,0.0136,0.0143,0.0148,0.0153,0.0156,0.016,0.0164,0.0167,0.0175,0.0177,0.0177,0.0188,0.0192,0.0198,0.0198,0.0201,0.0202,0.0202,0.0205,0.0205,0.0205,0.0206,0.0206,0.0202,0.0202,0.0202,0.0203,0,0.0141,0.0146,0.0149,0.0156,0.0159,0.0164,0.0169,0.0172,0.0174,0.0178,0.0183,0.0188,0.0194,0.0196,0.0198,0.0202,0.0202,0.0204,0.0204,0.0205,0.0206,0.0206,0.0202,0.0202,0.0202,0.0202,0,0,0.0141,0.015,0.0151,0.0154,0.0161,0.0165,0.0169,0.0175,0.0178,0.0182,0.0186,0.0193,0.0194,0.0197,0.02,0.0203,0.0204,0.0204,0.0204,0.0204,0.0209,0.0208,0.0209,0.0206,0.0206,0.0206,0.0209,0,0.0143,0.0151,0.0155,0.0162,0.0166,0.017,0.0173,0.0178,0.0181,0.0185,0.0189,0.0194,0.0195,0.0197,0.02,0.0204,0.0206,0.0203,0.0209,0.0209,0.0208,0.0209,0.0208,0.0211,0.0209,0.0209,0.0209,0,0.0147,0.0152,0.0159,0.0165,0.0167,0.017,0.0176,0.018,0.0185,0.0187,0.0191,0.0194,0.0199,0.0199,0.0205,0.0203,0.0206,0.0208,0.0209,0.0209,0.0209,0.021,0.0211,0.0212,0.021,0.021,0.021,0,0.0146,0.0154,0.0159,0.0162,0.017,0.0172,0.0175,0.018,0.0183,0.0188,0.019,0.0195,0.0198,0.0202,0.0206,0.0206,0.0212,0.0213,0.0214,0.0214,0.0215,0.0215,0.0217,0.0217,0.0217,0.0217,0.0217,0,0.0148,0.0152,0.0159,0.0162,0.0166,0.0171,0.0175,0.0179,0.0183,0.0187,0.0191,0.0194,0.0199,0.0203,0.0206,0.0211,0.0212,0.0214,0.0215,0.0214,0.0214,0.0216,0.0216,0.0217,0.0217,0.0217,0.0217,0,0.0148,0.0152,0.0158,0.0165,0.0167,0.017,0.0175,0.0178,0.0182,0.0187,0.0188,0.0194,0.0199,0.0203,0.021,0.0212,0.0217,0.0218,0.0215,0.0215,0.0217,0.0216,0.022,0.0221,0.022,0.022,0.022,0,0.0149,0.0152,0.0159,0.0162,0.0165,0.017,0.0173,0.0178,0.0181,0.0187,0.0189,0.0194,0.0199,0.0206,0.0211,0.0216,0.0217,0.0218,0.0218,0.0217,0.0217,0.0217,0.0217,0.0218,0.0218,0.0218,0.0218,0,0.0151,0.0153,0.0157,0.0163,0.0167,0.0171,0.0175,0.0177,0.0183,0.0186,0.0191,0.0195,0.0201,0.0207,0.0212,0.0215,0.0218,0.0218,0.0219,0.0218,0.0216,0.0217,0.0215,0.0218,0.0218,0.0218,0.0218,0.0218,0.0151,0.0154,0.016,0.0165,0.0168,0.0172,0.0176,0.018,0.0184,0.019,0.0192,0.0197,0.0202,0.021,0.0213,0.0217,0.0218,0.0219,0.0219,0.0219,0.0219,0.0215,0.0218,0.0218,0.0218,0.0218,0.0218,0,0.0153,0.0157,0.0161,0.0167,0.0171,0.0173,0.0178,0.0181,0.0186,0.019,0.0195,0.02,0.0205,0.021,0.0215,0.0218,0.0219,0.0219,0.0219,0.022,0.0218,0.0217,0.0218,0.0218,0.0218,0.0218,0.0218,0.0218,0.0155,0.016,0.0162,0.0169,0.0173,0.0178,0.0181,0.0185,0.0188,0.0195,0.0199,0.0202,0.0206,0.0212,0.0217,0.0218,0.022,0.0219,0.0221,0.022,0.022,0.022,0.0219,0.022,0.022,0.0222,0.0222,0.0222]},{"header":{"parameterUnit":"m.s-1","parameterCategory":1,"la1":30.2991,"la2":30.254,"lo1":-89.0895,"lo2":-89.0444,"dy":0.0017,"dx":0.0017,"nx":28,"ny":28,"refTime":"2023-11-08T09:00:00:Z","depth":0,"parameterNumber":3,"parameterNumberName":"V-component_of_WINDS"},"data":[0,0,0,0,0,0,0,0,0,0,0,0,0,0,0,0,0,0,0,0,0,0,0,0,0,0,0,0,0,0,0,0,0,0,0,0,0,0,0,0,0,0,0,0,0,0,0,0,0,0,0,0,0,0,0,0,0,0,2.6359,2.636,0,2.6422,2.6423,2.6424,2.6425,2.6424,2.6424,2.6423,2.6485,2.6487,2.6489,0,0,0,0,0,0,0,0,0,0,0,0,0,2.6237,2.6239,2.6359,2.636,2.636,2.6422,2.6423,2.6424,2.6425,2.6424,2.6423,2.6423,2.6484,2.6487,2.6489,0,0,0,0,0,0,0,0,0,0,0,0,0,2.6294,2.624,2.6359,2.6369,2.637,2.6422,2.6423,2.6424,2.6426,2.6424,2.6423,2.6422,2.6483,2.6486,2.649,2.6535,0,0,2.6501,2.6502,0,0,0,0,0,0,0,0,2.6291,2.6298,2.6366,2.6368,2.637,2.6415,2.6403,2.6461,2.6426,2.6404,2.6423,2.6422,2.6462,2.6467,2.6481,2.6538,2.654,2.6501,2.6503,2.6505,2.6506,0,0,0,0,0,0,0,2.6287,2.6296,2.6384,2.6367,2.637,2.6369,2.6376,2.6414,2.6439,2.6406,2.6406,2.6414,2.6463,2.6478,2.6483,2.6541,2.6501,2.6504,2.6506,2.6507,2.6639,2.664,0,0,0,0,0,0,2.6281,2.6292,2.6382,2.6386,2.6327,2.6372,2.638,2.6401,2.6438,2.6443,2.6415,2.6414,2.6473,2.6479,2.6485,2.6542,2.6504,2.6508,2.651,2.6637,2.6639,2.6641,0,0,0,0,0,0,2.6279,2.6289,2.6379,2.6339,2.6351,2.6376,2.64,2.6403,2.6419,2.6445,2.6449,2.6426,2.6472,2.648,2.6523,2.6544,2.6509,2.6513,2.6636,2.6638,2.664,2.6654,0,0,0,0,0,0,2.6275,2.6288,2.6306,2.634,2.6353,2.6417,2.6401,2.6405,2.6425,2.6424,2.6457,2.6461,2.6472,2.6518,2.6526,2.6548,2.6515,2.6634,2.6637,2.6639,2.6652,2.6656,2.666,0,0,0,0,0,2.6271,2.6306,2.6307,2.6318,2.6376,2.6418,2.6425,2.6438,2.6427,2.6445,2.6462,2.646,2.654,2.6522,2.6532,2.6555,2.6633,2.6636,2.6639,2.665,2.6655,2.666,0,0,0,0,0,0,2.6273,2.6311,2.6312,2.636,2.6386,2.6418,2.6441,2.6443,2.6472,2.647,2.6483,2.649,2.6533,2.6548,2.6527,2.6601,2.6585,2.659,2.659,2.6595,2.6599,2.6595,2.6518,0,0,0,0,0,2.628,2.6312,2.6342,2.6382,2.6395,2.6416,2.6435,2.6442,2.6469,2.648,2.65,2.6525,2.6556,2.6576,2.6606,2.6654,2.6661,2.6674,2.6678,2.6682,2.6686,2.6714,2.6721,2.6651,2.6651,2.6651,0,0,2.6293,2.6317,2.6336,2.6383,2.6404,2.6436,2.6425,2.6459,2.6484,2.6484,2.6527,2.6543,2.6572,2.6618,2.6639,2.6632,2.6707,2.6686,2.6688,2.6691,2.6718,2.6724,2.673,2.6653,2.6652,2.6652,0,0,2.6333,2.6355,2.6391,2.6413,2.6445,2.6459,2.6468,2.65,2.6511,2.6554,2.6556,2.6584,2.6637,2.6659,2.6676,2.6726,2.6726,2.6735,2.6757,2.6784,2.679,2.6795,2.6814,2.682,2.674,2.674,2.674,0,2.6345,2.6395,2.6409,2.6444,2.6465,2.6468,2.6505,2.6525,2.6565,2.6579,2.657,2.6638,2.6657,2.6709,2.6722,2.6735,2.6746,2.6732,2.6788,2.6793,2.6798,2.6816,2.6823,2.6741,2.6741,2.6741,2.674,0,2.6409,2.6443,2.6468,2.6509,2.6532,2.6568,2.6586,2.6608,2.6613,2.6628,2.6672,2.6696,2.6732,2.6744,2.6749,2.6797,2.6792,2.6785,2.677,2.6806,2.6823,2.683,2.6742,2.6742,2.6742,2.6741,0,0,2.6453,2.6502,2.6511,2.653,2.6566,2.6593,2.6629,2.6665,2.6684,2.6711,2.6742,2.6787,2.6782,2.6802,2.6809,2.6833,2.6873,2.6824,2.6825,2.6833,2.6928,2.6934,2.6942,2.6872,2.6874,2.6875,2.6926,0,2.6499,2.6564,2.6578,2.6634,2.6666,2.6671,2.6702,2.6727,2.6742,2.6771,2.6787,2.682,2.681,2.6822,2.6845,2.6863,2.6892,2.6859,2.6901,2.6903,2.6895,2.6951,2.6957,2.7004,2.6933,2.6934,2.6935,0,2.6561,2.6592,2.6652,2.6686,2.67,2.6728,2.6763,2.6791,2.682,2.6829,2.6852,2.6857,2.6895,2.6877,2.6928,2.6906,2.6923,2.6935,2.6937,2.6942,2.6922,2.6959,2.7019,2.7027,2.6946,2.6945,2.6944,0,2.6589,2.6645,2.6689,2.6705,2.6745,2.6765,2.6782,2.681,2.6832,2.6862,2.6876,2.6909,2.6927,2.6953,2.6967,2.6953,2.7018,2.7001,2.7027,2.7027,2.7042,2.7041,2.7107,2.7051,2.7051,2.7051,2.7051,0,2.664,2.6676,2.6703,2.6729,2.6771,2.6786,2.6826,2.6843,2.6868,2.6898,2.6903,2.6931,2.6947,2.6978,2.6989,2.7031,2.7038,2.7047,2.705,2.7047,2.7046,2.706,2.7057,2.7053,2.7052,2.7052,2.7051,0,2.6678,2.6697,2.6745,2.678,2.6789,2.6818,2.6848,2.6874,2.6889,2.6927,2.6937,2.696,2.6996,2.7013,2.7056,2.7064,2.7112,2.7112,2.7103,2.7104,2.713,2.7128,2.7208,2.722,2.7155,2.7155,2.7156,0,2.671,2.6739,2.6777,2.6798,2.6816,2.685,2.6872,2.6888,2.6911,2.6947,2.6969,2.7005,2.7036,2.7093,2.7113,2.7147,2.7149,2.7174,2.7154,2.7151,2.7151,2.7149,2.7153,2.7178,2.7179,2.718,2.718,0,2.6764,2.6773,2.6805,2.6842,2.6868,2.6897,2.6926,2.6942,2.6962,2.6988,2.7025,2.7049,2.7095,2.7131,2.7167,2.7184,2.7186,2.7186,2.7195,2.7193,2.7187,2.7192,2.7115,2.7185,2.7184,2.7184,2.7184,2.7183,2.6802,2.6828,2.686,2.6896,2.6919,2.6946,2.6973,2.6992,2.7024,2.7063,2.707,2.7111,2.714,2.7188,2.7206,2.7238,2.7232,2.7243,2.7246,2.7249,2.7252,2.7182,2.7244,2.7244,2.7244,2.7244,2.7244,0,2.6858,2.6878,2.6912,2.6952,2.6981,2.6981,2.7012,2.7036,2.7072,2.71,2.713,2.7174,2.7209,2.7233,2.7269,2.729,2.7292,2.7299,2.7298,2.7303,2.7254,2.7244,2.7297,2.7297,2.7297,2.7297,2.7297,2.7297,2.689,2.6936,2.6948,2.7005,2.7025,2.7066,2.7084,2.7108,2.7131,2.718,2.721,2.7226,2.7252,2.729,2.7323,2.7329,2.7343,2.7351,2.7356,2.7311,2.7306,2.73,2.7291,2.7353,2.7353,2.7402,2.7403,2.7403]}]]